sat.trackr.live / text

‹ back to catalog

CO3D 4

NORAD 64901 · 2025-156C

PAYLOAD ACTIVE UNKNOWN

§ Identity

Operator
Country
FR
Launch date
2025-07-26
Launch site
FRGUI
Launch vehicle
Mass (kg)
RCS (m²)

Purposes: earth_obs

External: N2YO · Heavens-Above · Gunter

§ Orbital elements

Epoch: 2026-05-25T03:35:43.113984Z

Period
94.72 min
Inclination
97.4325°
Eccentricity
0.0001365
Mean motion
15.20212084 rev/d
Perigee alt
504.3 km
Apogee alt
506.1 km
Semi-major
6,883.3 km
B*
2.1178e-4
RAAN
224.1741°
Arg perigee
63.4808°
Mean anomaly
296.6567°
Rev number
4,603

§ Raw data

CO3D 41 64901U 25156C   26145.14980456  .00004521  00000+0  21178-3 0  99972 64901  97.4325 224.1741 0001365  63.4808 296.6567 15.20212084 46036

JSON: /api/v1/satellites/64901 · /tle

For live sub-satellite position, see the globe view (requires WebGL).

§ Visibility from observer

Set your observer location to see the next 7 days of passes ≥ 10°. The values pass through the URL so the page stays shareable.

No JS? Fill the form by hand. The geolocation button needs JavaScript.